When you browse on this site, cookies collect data to enhance your experience and personalize the content and advertising you see.
Visit our Privacy Policy to learn more. By continuing to use the site, you agree to this use of cookies and data.
  • En España
  • Lista de países
  • Para 7 días
  • Temperatura del agua
  • Mapa Satelital
  • El tiempo en el mapa
  • Informadores
  • user-avatar
    Iniciar sesión

    Tiempo cada hora Patna

    Hoy, 20 Abril, Sábado

    Tiempo Temperatura Precipitaciones Viento Presión Humedad
    00:00 +31°C° 0 mm 2 mps 749 mmHg 26%
    01:00 +31°C° 0 mm 2 mps 749 mmHg 28%
    02:00 +30°C° 0 mm 2 mps 749 mmHg 29%
    03:00 +30°C° 0 mm 2 mps 749 mmHg 31%
    04:00 +30°C° 0 mm 2 mps 749 mmHg 33%
    05:00 +29°C° 0 mm 2 mps 749 mmHg 35%
    06:00 +27°C° 0 mm 0 mps 749 mmHg 31%
    07:00 +31°C° 0 mm 1 mps 750 mmHg 28%
    08:00 +34°C° 0 mm 2 mps 750 mmHg 25%
    09:00 +36°C° 0 mm 2 mps 750 mmHg 21%
    10:00 +37°C° 0 mm 2 mps 750 mmHg 20%
    11:00 +39°C° 0 mm 2 mps 750 mmHg 18%
    12:00 +39°C° 0 mm 2 mps 750 mmHg 17%
    13:00 +40°C° 0 mm 3 mps 749 mmHg 16%
    14:00 +41°C° 0 mm 4 mps 749 mmHg 15%
    15:00 +42°C° 0 mm 4 mps 748 mmHg 13%
    16:00 +42°C° 0 mm 4 mps 748 mmHg 13%
    17:00 +41°C° 0 mm 5 mps 747 mmHg 14%
    18:00 +39°C° 0 mm 3 mps 746 mmHg 16%
    19:00 +38°C° 0 mm 3 mps 747 mmHg 17%
    20:00 +37°C° 0 mm 3 mps 747 mmHg 18%
    21:00 +36°C° 0 mm 2 mps 747 mmHg 19%
    22:00 +35°C° 0 mm 2 mps 747 mmHg 19%
    23:00 +34°C° 0 mm 2 mps 747 mmHg 20%

    Mañana, 21 Abril, Domingo

    Tiempo Temperatura Precipitaciones Viento Presión Humedad
    00:00 +34°C° 0 mm 2 mps 748 mmHg 21%
    01:00 +32°C° 0 mm 2 mps 747 mmHg 22%
    02:00 +32°C° 0 mm 1 mps 747 mmHg 23%
    03:00 +31°C° 0 mm 1 mps 747 mmHg 24%
    04:00 +30°C° 0 mm 1 mps 747 mmHg 25%
    05:00 +30°C° 0 mm 1 mps 747 mmHg 25%
    06:00 +29°C° 0 mm 1 mps 747 mmHg 26%
    07:00 +32°C° 0 mm 2 mps 748 mmHg 24%
    08:00 +35°C° 0 mm 2 mps 748 mmHg 21%
    09:00 +37°C° 0 mm 2 mps 749 mmHg 18%
    10:00 +38°C° 0 mm 2 mps 749 mmHg 17%
    11:00 +40°C° 0 mm 2 mps 749 mmHg 15%
    12:00 +41°C° 0 mm 1 mps 749 mmHg 14%
    13:00 +42°C° 0 mm 2 mps 748 mmHg 13%
    14:00 +43°C° 0 mm 3 mps 747 mmHg 12%
    15:00 +44°C° 0 mm 4 mps 746 mmHg 11%
    16:00 +43°C° 0 mm 4 mps 746 mmHg 12%
    17:00 +43°C° 0 mm 4 mps 746 mmHg 12%
    18:00 +42°C° 0 mm 3 mps 745 mmHg 12%
    19:00 +40°C° 0 mm 3 mps 745 mmHg 13%
    20:00 +39°C° 0 mm 2 mps 746 mmHg 13%
    21:00 +37°C° 0 mm 1 mps 746 mmHg 14%
    22:00 +37°C° 0 mm 2 mps 746 mmHg 16%
    23:00 +36°C° 0 mm 3 mps 747 mmHg 18%

    Pasado mañana, 22 Abril, Lunes

    Tiempo Temperatura Precipitaciones Viento Presión Humedad
    00:00 +35°C° 0 mm 3 mps 747 mmHg 20%
    01:00 +34°C° 0 mm 3 mps 747 mmHg 21%
    02:00 +34°C° 0 mm 4 mps 746 mmHg 22%
    03:00 +33°C° 0 mm 4 mps 746 mmHg 24%
    04:00 +33°C° 0 mm 4 mps 746 mmHg 27%
    05:00 +32°C° 0 mm 4 mps 747 mmHg 30%
    06:00 +30°C° 0 mm 4 mps 747 mmHg 34%
    07:00 +33°C° 0 mm 4 mps 748 mmHg 31%
    08:00 +35°C° 0 mm 4 mps 748 mmHg 29%
    09:00 +37°C° 0 mm 3 mps 749 mmHg 26%
    10:00 +39°C° 0 mm 3 mps 749 mmHg 22%
    11:00 +41°C° 0 mm 2 mps 749 mmHg 18%
    12:00 +43°C° 0 mm 1 mps 749 mmHg 14%
    13:00 +42°C° 0 mm 1 mps 748 mmHg 13%
    14:00 +42°C° 0 mm 2 mps 747 mmHg 13%
    15:00 +42°C° 0 mm 2 mps 747 mmHg 12%
    16:00 +42°C° 0 mm 2 mps 746 mmHg 12%
    17:00 +42°C° 0 mm 2 mps 746 mmHg 12%
    18:00 +42°C° 0 mm 2 mps 746 mmHg 13%
    19:00 +40°C° 0 mm 2 mps 746 mmHg 14%
    20:00 +39°C° 0 mm 2 mps 747 mmHg 16%
    21:00 +37°C° 0 mm 3 mps 747 mmHg 18%
    22:00 +37°C° 0 mm 3 mps 747 mmHg 19%
    23:00 +36°C° 0 mm 3 mps 747 mmHg 21%

    23 Abril, Martes

    Tiempo Temperatura Precipitaciones Viento Presión Humedad
    00:00 +35°C° 0 mm 3 mps 748 mmHg 23%
    01:00 +35°C° 0 mm 3 mps 747 mmHg 24%
    02:00 +34°C° 0 mm 3 mps 747 mmHg 25%
    03:00 +32°C° 0 mm 2 mps 747 mmHg 27%
    04:00 +33°C° 0 mm 3 mps 747 mmHg 28%
    05:00 +31°C° 0 mm 3 mps 747 mmHg 30%
    06:00 +31°C° 0 mm 3 mps 748 mmHg 31%
    07:00 +33°C° 0 mm 4 mps 748 mmHg 31%
    08:00 +35°C° 0 mm 5 mps 749 mmHg 30%
    09:00 +36°C° 0 mm 6 mps 750 mmHg 30%
    10:00 +39°C° 0 mm 5 mps 750 mmHg 26%
    11:00 +41°C° 0 mm 5 mps 750 mmHg 22%
    12:00 +43°C° 0 mm 4 mps 750 mmHg 19%
    13:00 +44°C° 0 mm 3 mps 749 mmHg 17%
    14:00 +43°C° 0 mm 2 mps 748 mmHg 15%
    15:00 +43°C° 0 mm 1 mps 747 mmHg 13%
    16:00 +43°C° 0 mm 1 mps 747 mmHg 13%
    17:00 +43°C° 0 mm 1 mps 747 mmHg 13%
    18:00 +43°C° 0 mm 1 mps 746 mmHg 13%
    19:00 +41°C° 0 mm 1 mps 747 mmHg 15%
    20:00 +40°C° 0 mm 2 mps 748 mmHg 16%
    21:00 +39°C° 0 mm 3 mps 748 mmHg 18%
    22:00 +38°C° 0 mm 4 mps 748 mmHg 22%
    23:00 +38°C° 0 mm 6 mps 748 mmHg 27%

    24 Abril, Miércoles

    Tiempo Temperatura Precipitaciones Viento Presión Humedad
    00:00 +35°C° 0 mm 7 mps 749 mmHg 31%
    01:00 +35°C° 0 mm 7 mps 748 mmHg 33%
    02:00 +34°C° 0 mm 6 mps 748 mmHg 35%
    03:00 +33°C° 0 mm 6 mps 748 mmHg 38%
    04:00 +33°C° 0 mm 5 mps 748 mmHg 38%
    05:00 +33°C° 0 mm 5 mps 748 mmHg 38%
    06:00 +32°C° 0 mm 5 mps 748 mmHg 39%
    07:00 +34°C° 0 mm 6 mps 749 mmHg 37%
    08:00 +35°C° 0 mm 6 mps 750 mmHg 35%
    09:00 +36°C° 0 mm 7 mps 751 mmHg 33%
    10:00 +39°C° 0 mm 6 mps 750 mmHg 29%
    11:00 +41°C° 0 mm 5 mps 750 mmHg 24%
    12:00 +43°C° 0 mm 5 mps 750 mmHg 20%
    13:00 +44°C° 0 mm 4 mps 749 mmHg 17%
    14:00 +45°C° 0 mm 3 mps 748 mmHg 15%
    15:00 +46°C° 0 mm 2 mps 747 mmHg 13%
    16:00 +46°C° 0 mm 2 mps 747 mmHg 12%
    17:00 +44°C° 0 mm 1 mps 746 mmHg 12%
    18:00 +44°C° 0 mm 1 mps 746 mmHg 11%
    19:00 +43°C° 0 mm 3 mps 746 mmHg 15%
    20:00 +42°C° 0 mm 4 mps 747 mmHg 19%
    21:00 +40°C° 0 mm 6 mps 747 mmHg 22%
    22:00 +40°C° 0 mm 6 mps 748 mmHg 25%
    23:00 +39°C° 0 mm 6 mps 748 mmHg 29%

    25 Abril, Jueves

    Tiempo Temperatura Precipitaciones Viento Presión Humedad
    00:00 +38°C° 0 mm 6 mps 748 mmHg 32%
    01:00 +36°C° 0 mm 6 mps 747 mmHg 33%
    02:00 +36°C° 0 mm 7 mps 747 mmHg 34%
    03:00 +35°C° 0 mm 7 mps 747 mmHg 36%
    04:00 +35°C° 0 mm 6 mps 747 mmHg 37%
    05:00 +34°C° 0 mm 6 mps 747 mmHg 39%
    06:00 +33°C° 0 mm 6 mps 747 mmHg 40%
    07:00 +35°C° 0 mm 6 mps 748 mmHg 39%
    08:00 +36°C° 0 mm 6 mps 748 mmHg 38%
    09:00 +39°C° 0 mm 6 mps 749 mmHg 36%
    10:00 +41°C° 0 mm 5 mps 749 mmHg 32%
    11:00 +42°C° 0 mm 5 mps 749 mmHg 28%
    12:00 +45°C° 0 mm 5 mps 748 mmHg 24%
    13:00 +45°C° 0 mm 4 mps 748 mmHg 21%
    14:00 +46°C° 0 mm 3 mps 747 mmHg 19%
    15:00 +46°C° 0 mm 2 mps 746 mmHg 16%
    16:00 +46°C° 0 mm 2 mps 746 mmHg 17%
    17:00 +45°C° 0 mm 2 mps 746 mmHg 17%
    18:00 +45°C° 0 mm 3 mps 745 mmHg 18%
    19:00 +44°C° 0 mm 3 mps 746 mmHg 19%
    20:00 +42°C° 0 mm 3 mps 747 mmHg 21%
    21:00 +40°C° 0 mm 3 mps 747 mmHg 23%
    22:00 +40°C° 0 mm 4 mps 747 mmHg 27%
    23:00 +38°C° 0 mm 4 mps 747 mmHg 31%
    Mostrar más